EW7271 Weather Reports


Display with metric or nautical units.
time (UTC)temp
F
wind
direction
speed
MPH
gust
MPH
rain 1hr
in
rain 24hr
in
rain mn
in
humidity
%
barometer
mb
20260506003601 70 225 0.0 0.0 0.00 0.00 0.00 59 1015.7
20260506003201 70 121 0.0 0.0 0.00 0.00 0.00 60 1015.5
20260506002402 70 192 0.0 0.0 0.00 0.00 0.00 58 1015.6
20260506002006 71 116 0.0 0.0 0.00 0.00 0.00 58 1015.5
20260506001600 71 325 0.0 0.0 0.00 0.00 0.00 58 1015.4
20260506001205 71 193 0.0 0.0 0.00 0.00 0.00 57 1015.3
20260506000800 71 161 0.0 0.0 0.00 0.00 0.00 57 1015.2
20260506000401 71 116 0.0 0.0 0.00 0.00 0.00 57 1015.2
20260506000007 72 130 0.0 0.0 0.00 0.00 0.00 55 1015.1
20260505235601 72 231 0.0 0.0 0.00 0.00 0.00 56 1015.2
20260505235202 72 228 0.0 0.0 0.00 0.00 0.00 56 1015.3
20260505234403 73 121 0.0 0.0 0.00 0.00 0.00 55 1015.2
20260505234001 73 80 0.0 0.0 0.00 0.00 0.00 55 1015.1
20260505233603 73 219 0.0 0.0 0.00 0.00 0.00 54 1015.1
20260505233206 74 138 0.0 0.0 0.00 0.00 0.00 54 1015.1
20260505232401 74 216 0.0 0.0 0.00 0.00 0.00 52 1015.0
20260505232002 74 169 0.0 0.0 0.00 0.00 0.00 53 1015.0
20260505231601 74 227 0.0 0.0 0.00 0.00 0.00 52 1014.9
20260505231201 74 229 0.0 0.0 0.00 0.00 0.00 53 1014.9
20260505230801 75 268 0.0 0.0 0.00 0.00 0.00 50 1015.0
20260505230405 75 340 0.0 0.0 0.00 0.00 0.00 52 1015.0
20260505230007 75 165 0.0 0.0 0.00 0.00 0.00 51 1015.0
20260505225600 76 286 0.0 0.0 0.00 0.00 0.00 52 1015.0
20260505224400 76 201 0.0 0.0 0.00 0.00 0.00 50 1015.1
20260505224002 76 93 0.0 0.0 0.00 0.00 0.00 50 1015.3
20260505223601 76 249 0.0 0.0 0.00 0.00 0.00 50 1015.2
20260505222802 77 143 0.0 0.0 0.00 0.00 0.00 50 1015.2
20260505222400 77 293 0.0 0.0 0.00 0.00 0.00 48 1015.2
20260505222004 77 24 0.0 0.0 0.00 0.00 0.00 48 1015.2
20260505221601 77 109 0.0 0.0 0.00 0.00 0.00 48 1015.2
20260505221200 77 274 0.0 0.0 0.00 0.00 0.00 50 1015.2
20260505220759 78 191 0.0 0.0 0.00 0.00 0.00 49 1015.2
20260505220401 78 151 0.0 0.0 0.00 0.00 0.00 48 1015.2
20260505220007 78 170 0.0 0.0 0.00 0.00 0.00 47 1015.3
20260505215601 77 155 0.0 0.0 0.00 0.00 0.00 50 1015.3
20260505215204 77 140 0.0 0.0 0.00 0.00 0.00 49 1015.3
20260505214800 78 72 0.0 0.0 0.00 0.00 0.00 48 1015.2
20260505214404 78 82 0.0 0.0 0.00 0.00 0.00 49 1015.1
20260505214001 78 184 0.0 0.0 0.00 0.00 0.00 48 1015.0
20260505213601 78 261 0.0 0.0 0.00 0.00 0.00 50 1014.9
20260505213200 79 163 0.0 0.0 0.00 0.00 0.00 48 1015.1
20260505212800 79 121 0.0 0.0 0.00 0.00 0.00 50 1015.1
20260505212400 79 190 0.0 0.0 0.00 0.00 0.00 50 1015.1
20260505212005 78 211 0.0 0.0 0.00 0.00 0.00 49 1015.1
20260505211202 79 113 0.0 0.0 0.00 0.00 0.00 48 1015.4
20260505210800 79 148 0.0 0.0 0.00 0.00 0.00 46 1015.6
20260505210400 79 149 0.0 0.0 0.00 0.00 0.00 48 1015.5
20260505210011 79 144 0.0 0.0 0.00 0.00 0.00 50 1015.4
20260505205604 78 127 0.0 0.0 0.00 0.00 0.00 48 1015.3
20260505204005 80 202 0.0 0.0 0.00 0.00 0.00 47 1015.4
20260505203159 80 117 0.0 0.0 0.00 0.00 0.00 44 1015.5
20260505202759 80 175 0.0 0.0 0.00 0.00 0.00 50 1015.4
20260505202401 79 74 0.0 0.0 0.00 0.00 0.00 47 1015.5
20260505202001 79 84 0.0 0.0 0.00 0.00 0.00 47 1015.6
20260505201559 78 123 0.0 0.0 0.00 0.00 0.00 48 1015.6
20260505201200 78 107 0.0 0.0 0.00 0.00 0.00 50 1015.6
20260505200800 79 138 0.0 0.0 0.00 0.00 0.00 45 1015.6
20260505200401 80 235 0.0 0.0 0.00 0.00 0.00 46 1015.7
20260505195559 80 122 0.0 0.0 0.00 0.00 0.00 49 1015.9
20260505195201 80 140 0.0 0.0 0.00 0.00 0.00 46 1015.9
20260505194759 79 106 0.0 0.0 0.00 0.00 0.00 45 1015.9
20260505194000 78 246 0.0 0.0 0.00 0.00 0.00 47 1016.1
20260505193600 78 183 0.0 0.0 0.00 0.00 0.00 45 1016.2
20260505193159 79 196 0.0 0.0 0.00 0.00 0.00 44 1016.3
20260505192800 80 253 0.0 0.0 0.00 0.00 0.00 44 1016.2
20260505192400 80 142 0.0 0.0 0.00 0.00 0.00 43 1016.4
20260505192002 80 200 0.0 0.0 0.00 0.00 0.00 47 1016.4
20260505191600 79 215 0.0 0.0 0.00 0.00 0.00 48 1016.5
20260505191202 79 211 0.0 0.0 0.00 0.00 0.00 47 1016.5
20260505190800 79 173 0.0 0.0 0.00 0.00 0.00 47 1016.5
20260505190359 79 293 0.0 0.0 0.00 0.00 0.00 49 1016.7
20260505190004 79 149 0.0 0.0 0.00 0.00 0.00 46 1016.7
20260505185601 79 67 0.0 0.0 0.00 0.00 0.00 49 1016.8
20260505185201 80 163 0.0 0.0 0.00 0.00 0.00 47 1016.9
20260505184759 80 98 0.0 0.0 0.00 0.00 0.00 45 1016.9
20260505184359 79 199 0.0 0.0 0.00 0.00 0.00 49 1017.0
20260505184000 79 244 0.0 0.0 0.00 0.00 0.00 48 1017.0
20260505183159 79 302 0.0 0.0 0.00 0.00 0.00 45 1017.1
20260505182800 79 109 0.0 0.0 0.00 0.00 0.00 49 1017.0
20260505182359 78 211 0.0 0.0 0.00 0.00 0.00 52 1017.1
20260505182000 78 164 0.0 0.0 0.00 0.00 0.00 46 1017.3
20260505181600 79 169 0.0 0.0 0.00 0.00 0.00 51 1017.3
20260505181201 79 272 0.0 0.0 0.00 0.00 0.00 46 1017.2
20260505180800 80 279 0.0 0.0 0.00 0.00 0.00 47 1017.3
20260505180400 79 145 0.0 0.0 0.00 0.00 0.00 44 1017.3
20260505175959 78 210 0.0 0.0 0.00 0.00 0.00 53 1017.6
20260505175559 78 210 0.0 0.0 0.00 0.00 0.00 53 1017.6
20260505175158 78 210 0.0 0.0 0.00 0.00 0.00 53 1017.6
20260505174759 78 210 0.0 0.0 0.00 0.00 0.00 53 1017.6
20260505174358 78 210 0.0 0.0 0.00 0.00 0.00 53 1017.6
20260505173959 78 210 0.0 0.0 0.00 0.00 0.00 53 1017.6
20260505173559 78 210 0.0 0.0 0.00 0.00 0.00 53 1017.6
20260505173159 78 210 0.0 0.0 0.00 0.00 0.00 53 1017.6
20260505172759 78 210 0.0 0.0 0.00 0.00 0.00 53 1017.6
20260505172359 78 210 0.0 0.0 0.00 0.00 0.00 53 1017.6
20260505171959 78 210 0.0 0.0 0.00 0.00 0.00 53 1017.6
20260505171559 78 210 0.0 0.0 0.00 0.00 0.00 53 1017.6
20260505171159 78 210 0.0 0.0 0.00 0.00 0.00 53 1017.6
20260505170758 78 210 0.0 0.0 0.00 0.00 0.00 53 1017.6
20260505170359 78 210 0.0 0.0 0.00 0.00 0.00 53 1017.6
20260505165200 77 215 0.0 0.0 0.00 0.00 0.00 53 1017.7
20260505164800 78 138 0.0 0.0 0.00 0.00 0.00 48 1017.8
20260505164001 77 153 0.0 0.0 0.00 0.00 0.00 53 1017.8
20260505163559 77 286 0.0 0.0 0.00 0.00 0.00 50 1017.8
20260505163159 77 215 0.0 0.0 0.00 0.00 0.00 52 1017.8
20260505162800 77 119 0.0 0.0 0.00 0.00 0.00 53 1017.9
20260505162002 77 262 0.0 0.0 0.00 0.00 0.00 55 1018.2
20260505161600 76 150 0.0 0.0 0.00 0.00 0.00 52 1018.1
20260505161201 76 248 0.0 0.0 0.00 0.00 0.00 51 1018.3
20260505160400 76 128 0.0 0.0 0.00 0.00 0.00 55 1018.1
20260505153158 75 78 0.0 0.0 0.00 0.00 0.00 54 1018.5
20260505152759 75 314 0.0 0.0 0.00 0.00 0.00 55 1018.5
20260505152358 74 161 0.0 0.0 0.00 0.00 0.00 55 1018.6
20260505152000 74 70 0.0 0.0 0.00 0.00 0.00 58 1018.6
20260505151559 74 284 0.0 0.0 0.00 0.00 0.00 58 1018.5
20260505151159 74 288 0.0 0.0 0.00 0.00 0.00 56 1018.6
20260505150759 73 331 0.0 0.0 0.00 0.00 0.00 57 1018.5
20260505140400 70 310 0.0 0.0 0.00 0.00 0.00 67 1018.5
20260505124759 64 170 0.0 0.0 0.00 0.00 0.00 71 1018.7
20260505124359 64 303 0.0 0.0 0.00 0.00 0.00 73 1018.6
20260505124001 64 198 0.0 0.0 0.00 0.00 0.00 74 1018.7
20260505123158 63 293 0.0 0.0 0.00 0.00 0.00 77 1018.6
20260505122358 62 154 0.0 0.0 0.00 0.00 0.00 77 1018.5
20260505121559 61 265 0.0 0.0 0.00 0.00 0.00 77 1018.5
20260505121159 60 286 0.0 0.0 0.00 0.00 0.00 79 1018.6
20260505120758 60 291 0.0 0.0 0.00 0.00 0.00 80 1018.5
20260505120359 59 217 0.0 0.0 0.00 0.00 0.00 80 1018.3
20260505120000 59 287 0.0 0.0 0.00 0.00 0.00 81 1018.4
20260505115558 58 286 0.0 0.0 0.00 0.00 0.00 82 1018.4
20260505114400 57 275 0.0 0.0 0.00 0.00 0.00 84 1018.3
20260505113558 56 275 0.0 0.0 0.00 0.00 0.00 85 1018.3
20260505113159 55 275 0.0 655.0 5.76 0.49 0.00 86
20260505112759 55 275 0.0 0.0 0.00 0.00 0.00 87 1018.2
20260505112359 54 275 0.0 0.0 0.00 0.00 0.00 87 1018.1
20260505111959 54 275 0.0 0.0 0.00 0.00 0.00 88 1018.1
20260505111158 53 275 0.0 0.0 0.00 0.00 0.00 88 1018.0
20260505110758 53 275 0.0 0.0 0.00 0.00 0.00 88 1017.9
20260505110400 53 275 0.0 0.0 0.00 0.00 0.00 88 1017.9
20260505101959 52 360 0.0 0.0 0.00 0.00 0.00 87 1017.2
20260505101559 53 360 0.0 0.0 0.00 0.00 0.00 86 1017.2
20260505100401 53 360 0.0 0.0 0.00 0.00 0.00 86 1017.1
20260505095557 53 360 0.0 0.0 0.00 0.00 0.00 85 1017.1
20260505095159 53 360 0.0 0.0 0.00 0.00 0.00 85 1017.1
20260505094358 54 360 0.0 0.0 0.00 0.00 0.00 84 1017.0
20260505094000 54 360 0.0 0.0 0.00 0.00 0.00 84 1017.0
20260505093558 54 360 0.0 0.0 0.00 0.00 0.00 83 1017.0
20260505093158 54 360 0.0 0.0 0.00 0.00 0.00 83 1017.1
20260505092400 54 360 0.0 0.0 0.00 0.00 0.00 82 1017.0
20260505091958 55 360 0.0 0.0 0.00 0.00 0.00 82 1016.9
20260505091559 55 360 0.0 0.0 0.00 0.00 0.00 82 1016.9
20260505091158 55 360 0.0 0.0 0.00 0.00 0.00 81 1016.9
20260505090759 55 360 0.0 0.0 0.00 0.00 0.00 81 1016.9
20260505090359 55 360 0.0 0.0 0.00 0.00 0.00 80 1016.8
20260505085959 56 360 0.0 0.0 0.00 0.00 0.00 80 1016.9
20260505085557 56 360 0.0 0.0 0.00 0.00 0.00 79 1016.8
20260505085157 56 360 0.0 0.0 0.00 0.00 0.00 79 1016.8
20260505084758 56 360 0.0 0.0 0.00 0.00 0.00 78 1016.8
20260505084357 56 360 0.0 0.0 0.00 0.00 0.00 79 1016.7
20260505083957 56 360 0.0 0.0 0.00 0.00 0.00 78 1016.7
20260505083557 56 360 0.0 0.0 0.00 0.00 0.00 79 1016.8
20260505082758 57 360 0.0 0.0 0.00 0.00 0.00 79 1016.7
20260505081958 57 360 0.0 0.0 0.00 0.00 0.00 78 1016.7
20260505081558 57 360 0.0 0.0 0.00 0.00 0.00 79 1016.7
20260505081157 57 360 0.0 0.0 0.00 0.00 0.00 77 1016.7
20260505080757 57 360 0.0 0.0 0.00 0.00 0.00 78 1016.7
20260505075959 57 360 0.0 0.0 0.00 0.00 0.00 77 1016.7
20260505075159 57 360 0.0 0.0 0.00 0.00 0.00 77 1016.6
20260505074358 57 360 0.0 0.0 0.00 0.00 0.00 77 1016.6
20260505074000 57 360 0.0 0.0 0.00 0.00 0.00 76 1016.7
20260505072758 57 360 0.0 0.0 0.00 0.00 0.00 78 1016.7
20260505072359 57 360 0.0 0.0 0.00 0.00 0.00 78 1016.6
20260505072000 57 360 0.0 0.0 0.00 0.00 0.00 77 1016.6
20260505071201 57 360 0.0 0.0 0.00 0.00 0.00 77 1016.5
20260505070758 57 360 0.0 0.0 0.00 0.00 0.00 77 1016.6
20260505070359 57 360 0.0 0.0 0.00 0.00 0.00 77 1016.6
20260505065957 57 360 0.0 0.0 0.00 0.00 0.00 77 1016.6
20260505065158 57 360 0.0 0.0 0.00 0.00 0.00 77 1016.6
20260505064758 57 360 0.0 0.0 0.00 0.00 0.00 76 1016.6
20260505064358 57 360 0.0 0.0 0.00 0.00 0.00 76 1016.7
20260505063958 57 360 0.0 0.0 0.00 0.00 0.00 76 1016.6
20260505063557 57 360 0.0 0.0 0.00 0.00 0.00 76 1016.6
20260505063157 58 360 0.0 0.0 0.00 0.00 0.00 76 1016.5
20260505062757 58 360 0.0 0.0 0.00 0.00 0.00 76 1016.5
20260505062357 58 360 0.0 0.0 0.00 0.00 0.00 76 1016.6
20260505061959 57 360 0.0 0.0 0.00 0.00 0.00 76 1016.6
20260505061557 57 360 0.0 0.0 0.00 0.00 0.00 77 1016.7
20260505061157 58 360 0.0 0.0 0.00 0.00 0.00 76 1016.7
20260505060357 58 360 0.0 0.0 0.00 0.00 0.00 75 1016.8
20260505055557 58 360 0.0 0.0 0.00 0.00 0.00 75 1016.8
20260505055158 58 360 0.0 0.0 0.00 0.00 0.00 74 1016.9
20260505054757 58 360 0.0 0.0 0.00 0.00 0.00 75 1016.9
20260505054359 58 360 0.0 0.0 0.00 0.00 0.00 75 1016.9
20260505053958 59 360 0.0 0.0 0.00 0.00 0.00 75 1017.0
20260505053559 59 360 0.0 0.0 0.00 0.00 0.00 75 1017.0
20260505053158 59 360 0.0 0.0 0.00 0.00 0.00 74 1017.1
20260505052758 59 360 0.0 0.0 0.00 0.00 0.00 74 1017.1
20260505052358 59 360 0.0 0.0 0.00 0.00 0.00 73 1017.0
20260505051959 59 360 0.0 0.0 0.00 0.00 0.00 73 1017.1
20260505051557 59 360 0.0 0.0 0.00 0.00 0.00 73 1017.1
20260505051157 60 247 0.0 0.0 0.00 0.00 0.00 72 1017.1
20260505050357 60 13 0.0 0.0 0.00 0.00 0.00 71 1017.0
20260505041600 61 0.0 0.0 0.00 0.00 0.00 70 1016.9
20260505040800 61 263 0.0 0.0 0.00 0.00 0.00 71 1016.9
20260505040400 61 263 0.0 0.0 0.00 0.00 0.00 70 1016.8
20260505040001 61 263 0.0 0.0 0.00 0.00 0.00 69 1016.8
20260505035601 61 263 0.0 0.0 0.00 0.00 0.00 69 1016.9
20260505035201 62 160 0.0 0.0 0.00 0.00 0.00 68 1016.9
20260505034801 62 263 0.0 0.0 0.00 0.00 0.00 69 1016.8
20260505034359 62 239 0.0 0.0 0.00 0.00 0.00 68 1016.8
20260505033600 62 302 0.0 0.0 0.00 0.00 0.00 68 1016.8
20260505032800 62 302 0.0 0.0 0.00 0.00 0.00 69 1016.9
20260505032401 62 90 0.0 0.0 0.00 0.00 0.00 68 1016.8
20260505031600 62 290 0.0 0.0 0.00 0.00 0.00 66 1016.8
20260505031200 62 161 0.0 0.0 0.00 0.00 0.00 66 1016.7
20260505030800 63 129 0.0 0.0 0.00 0.00 0.00 66 1016.7
20260505030402 63 289 0.0 0.0 0.00 0.00 0.00 66 1016.8
20260505030001 63 296 0.0 0.0 0.00 0.00 0.00 65 1016.7
20260505025601 63 137 0.0 0.0 0.00 0.00 0.00 65 1016.6
20260505025201 63 201 0.0 0.0 0.00 0.00 0.00 66 1016.7
20260505024800 63 269 0.0 0.0 0.00 0.00 0.00 66 1016.7
20260505024401 63 232 0.0 0.0 0.00 0.00 0.00 65 1016.8
20260505023600 64 273 0.0 0.0 0.00 0.00 0.00 65 1016.8
20260505023201 64 98 0.0 0.0 0.00 0.00 0.00 65 1016.7
20260505022802 64 167 0.0 0.0 0.00 0.00 0.00 65 1016.7
20260505022400 64 217 0.0 0.0 0.00 0.00 0.00 63 1016.7
20260505022001 64 292 0.0 0.0 0.00 0.00 0.00 65 1016.7
20260505021602 64 132 0.0 0.0 0.00 0.00 0.00 63 1016.7
20260505021200 64 107 0.0 0.0 0.00 0.00 0.00 63 1016.5
20260505020801 65 155 0.0 0.0 0.00 0.00 0.00 63 1016.5
20260505020400 65 95 0.0 0.0 0.00 0.00 0.00 62 1016.5
20260505015601 65 239 0.0 0.0 0.00 0.00 0.00 62 1016.5
20260505015200 65 148 0.0 0.0 0.00 0.00 0.00 62 1016.5
20260505014801 65 234 0.0 0.0 0.00 0.00 0.00 61 1016.5
20260505014400 66 11 0.0 0.0 0.00 0.00 0.00 62 1016.4
20260505014001 66 90 0.0 0.0 0.00 0.00 0.00 63 1016.5
20260505013600 66 338 0.0 0.0 0.00 0.00 0.00 61 1016.5
20260505013201 66 167 0.0 0.0 0.00 0.00 0.00 61 1016.4
20260505012800 66 157 0.0 0.0 0.00 0.00 0.00 61 1016.3
20260505012002 67 163 0.0 0.0 0.00 0.00 0.00 60 1016.2
20260505011600 67 105 0.0 0.0 0.00 0.00 0.00 60 1016.2
20260505011201 67 263 0.0 0.0 0.00 0.00 0.00 62 1016.0
20260505010800 67 61 0.0 0.0 0.00 0.00 0.00 63 1015.9
20260505010400 67 280 0.0 0.0 0.00 0.00 0.00 62 1015.9
20260505010001 67 284 0.0 0.0 0.00 0.00 0.00 60 1015.9
20260505005600 68 247 0.0 0.0 0.00 0.00 0.00 62 1015.8
20260505005200 68 232 0.0 0.0 0.00 0.00 0.00 61 1015.7
20260505004800 68 265 0.0 0.0 0.00 0.00 0.00 59 1015.7
20260505004400 68 341 0.0 0.0 0.00 0.00 0.00 58 1015.5
20260505004000 68 126 0.0 0.0 0.00 0.00 0.00 59 1015.3